CZ-6A DEB

Satellite information

Favourite Embed

Satellite Type and Status

DEBRISIN ORBIT

Key statistics

Satellite CZ-6A DEB at a glance.

Uptime

1129

Days in orbit

Revolutions

≈ 14.4

Per day

Orbit

SSO

Sun Synchronous Orbit

Inclination

98.7

Latest

Satellite identification and parameters

Extended collection of information and parameters for CZ-6A DEB.

Object identification

Identified? True

Debris? True

Object name: CZ-6A DEB

International designator: 2022-151CQ

Object number (NORAD): 54345

Object ID (CCSDS): 54345

Country: PEOPLES REPUBLIC OF CHINA (PRC)

Current information (Y/N): Y

RCS size: SMALL

Orbital parameters

Period: 99.702 minutes

Inclination: 98.6732 deg

SMA: 7122.445 km

Apoapsis: 783.537 km

Periapsis: 705.083 km

RAAN: 8.6947 deg

Eccentricy: 0.00550748

Argument of periapsis: 267.2103 deg

Mean anomaly: 92.2783 deg

Mean motion: 14.44305635 rev/day

Mean motion (dot): 0.00012663 rev/day2

B* drag term: 0.0036214422 1/REarth

Two-line elements (TLE)

Creation date: Dec. 13, 2025, 4:32 a.m.

Reference frame: TEME

Reference center: EARTH

Epoch: Dec. 13, 2025, 12:51 a.m. UTC

TLE line 0: 0 CZ-6A DEB

TLE line 1: 1 54345U 22151CQ 25347.03552868 .00012663 00000-0 36214-2 0 9996

TLE line 2: 2 54345 98.6732 8.6947 0055075 267.2103 92.2783 14.44305635160648

Live tracking on map

Real-time ground track for satellite CZ-6A DEB.

In-orbit conjunctions

A list of the most updated potential collisions computed for object CZ-6A DEB.

Target Orbit TCA Probability of collision Miss distance Type
SL-8 R/B LEO 2025-09-14 04:38:21 0.0005614714 285.0 (m) ROCKET BODY
CZ-6A R/B LEO 2025-06-01 03:21:43 0.0013143 489.0 (m) ROCKET BODY
COSMOS 2251 DEB LEO 2025-05-26 09:31:56 0.0002746047 171.0 (m) DEBRIS

Associated space launch

Chinese satellite reported for atmospheric/ocean/environmental/spatial parameter research purposes, details TBD.

CZ-6A DEB was lifted into orbit during the mission ‘Long March 6A | Yunhai 3’, on board a Long March 6A space rocket.

The launch took place on Nov. 11, 2022, 10:52 p.m. from Launch Complex 9A.

For more information about the launch, click the button.

Launch to space Long March 6A | Yunhai 3
Long March 6A | Yunhai 3

Agency: N/A

Status: Launch Successful

Launch date: Nov. 11, 2022, 10:52 p.m. UTC

Rocket: Long March 6A

Launch pad: Launch Complex 9A

Location: Taiyuan Satellite Launch Center, People's Republic of China

...

Latest news about this satellite

There are no fresh news available about this satellite. Check back as we update our databases every day.


Newsletter sign-up

Weekly statistics, charts and insights to help you stay on top of the space industry.